• In Hungary
  • List of Countries
  • For 7 days
  • Water Temperature
  • Satellite Maps
  • Weather Map
  • News
  • Weather Widgets
  • user-avatar
    Login

    Hourly Weather Polevye Ozerki

    Today, 26 April, Thursday

    Time Temperature Precipitation Wind Pressure Humidity
    00:00 +10°C° 0.1 mm 3 mps 737 mmHg 89%
    01:00 +9°C° 0 mm 3 mps 737 mmHg 91%
    02:00 +9°C° 0 mm 3 mps 737 mmHg 92%
    03:00 +8°C° 0 mm 3 mps 736 mmHg 94%
    04:00 +8°C° 0.2 mm 3 mps 736 mmHg 94%
    05:00 +8°C° 0.2 mm 3 mps 735 mmHg 94%
    06:00 +9°C° 0.2 mm 3 mps 735 mmHg 94%
    07:00 +8°C° 0.5 mm 4 mps 734 mmHg 93%
    08:00 +9°C° 0.5 mm 5 mps 734 mmHg 91%
    09:00 +10°C° 0.5 mm 6 mps 733 mmHg 90%
    10:00 +11°C° 0.3 mm 6 mps 733 mmHg 86%
    11:00 +12°C° 0.3 mm 7 mps 733 mmHg 83%
    12:00 +14°C° 0.3 mm 7 mps 733 mmHg 80%
    13:00 +15°C° 0.1 mm 8 mps 733 mmHg 71%
    14:00 +16°C° 0.1 mm 9 mps 733 mmHg 63%
    15:00 +17°C° 0.1 mm 10 mps 733 mmHg 54%
    16:00 +16°C° 0 mm 10 mps 734 mmHg 55%
    17:00 +15°C° 0 mm 9 mps 734 mmHg 57%
    18:00 +13°C° 0 mm 9 mps 735 mmHg 58%
    19:00 +11°C° 0 mm 8 mps 736 mmHg 61%
    20:00 +10°C° 0 mm 7 mps 737 mmHg 63%
    21:00 +9°C° 0 mm 7 mps 738 mmHg 66%
    22:00 +8°C° 0 mm 6 mps 739 mmHg 67%
    23:00 +7°C° 0 mm 5 mps 739 mmHg 69%

    Tomorrow, 27 April, Friday

    Time Temperature Precipitation Wind Pressure Humidity
    00:00 +7°C° 0 mm 4 mps 740 mmHg 71%
    01:00 +6°C° 0 mm 4 mps 740 mmHg 73%
    02:00 +6°C° 0 mm 4 mps 740 mmHg 75%
    03:00 +7°C° 0 mm 3 mps 741 mmHg 78%
    04:00 +7°C° 0 mm 3 mps 741 mmHg 78%
    05:00 +7°C° 0 mm 3 mps 741 mmHg 79%
    06:00 +7°C° 0 mm 3 mps 742 mmHg 80%
    07:00 +8°C° 0 mm 3 mps 742 mmHg 75%
    08:00 +9°C° 0 mm 3 mps 742 mmHg 71%
    09:00 +10°C° 0 mm 3 mps 743 mmHg 67%
    10:00 +11°C° 0 mm 3 mps 743 mmHg 61%
    11:00 +13°C° 0 mm 4 mps 743 mmHg 55%
    12:00 +14°C° 0 mm 4 mps 743 mmHg 50%
    13:00 +14°C° 0 mm 3 mps 743 mmHg 48%
    14:00 +14°C° 0 mm 3 mps 743 mmHg 47%
    15:00 +16°C° 0 mm 3 mps 743 mmHg 46%
    16:00 +14°C° 0 mm 3 mps 742 mmHg 51%
    17:00 +14°C° 0 mm 3 mps 742 mmHg 56%
    18:00 +14°C° 0 mm 2 mps 742 mmHg 61%
    19:00 +13°C° 0.1 mm 2 mps 742 mmHg 67%
    20:00 +12°C° 0.1 mm 2 mps 742 mmHg 72%
    21:00 +10°C° 0.1 mm 2 mps 742 mmHg 78%
    22:00 +10°C° 0.9 mm 2 mps 742 mmHg 82%
    23:00 +9°C° 0.9 mm 3 mps 742 mmHg 87%

    Day after tomorrow, 28 April, Saturday

    Time Temperature Precipitation Wind Pressure Humidity
    00:00 +9°C° 0.9 mm 3 mps 742 mmHg 91%
    01:00 +8°C° 0.8 mm 3 mps 743 mmHg 92%
    02:00 +8°C° 0.8 mm 3 mps 743 mmHg 93%
    03:00 +8°C° 0.8 mm 2 mps 743 mmHg 93%
    04:00 +7°C° 0.1 mm 3 mps 743 mmHg 92%
    05:00 +7°C° 0.1 mm 3 mps 743 mmHg 90%
    06:00 +7°C° 0.1 mm 3 mps 743 mmHg 89%
    07:00 +8°C° 0 mm 3 mps 744 mmHg 81%
    08:00 +10°C° 0 mm 4 mps 744 mmHg 73%
    09:00 +11°C° 0 mm 4 mps 745 mmHg 66%
    10:00 +12°C° 0.1 mm 5 mps 745 mmHg 61%
    11:00 +13°C° 0.1 mm 5 mps 745 mmHg 56%
    12:00 +14°C° 0.1 mm 6 mps 745 mmHg 51%
    13:00 +14°C° 0 mm 6 mps 746 mmHg 49%
    14:00 +15°C° 0 mm 6 mps 746 mmHg 47%
    15:00 +15°C° 0 mm 6 mps 746 mmHg 45%
    16:00 +15°C° 0 mm 5 mps 746 mmHg 46%
    17:00 +14°C° 0 mm 5 mps 746 mmHg 48%
    18:00 +14°C° 0 mm 4 mps 746 mmHg 50%
    19:00 +13°C° 0 mm 4 mps 747 mmHg 54%
    20:00 +11°C° 0 mm 3 mps 747 mmHg 58%
    21:00 +10°C° 0 mm 3 mps 748 mmHg 61%
    22:00 +9°C° 0 mm 3 mps 748 mmHg 63%
    23:00 +9°C° 0 mm 3 mps 748 mmHg 64%

    29 April, Sunday

    Time Temperature Precipitation Wind Pressure Humidity
    00:00 +8°C° 0 mm 3 mps 749 mmHg 65%
    01:00 +8°C° 0 mm 3 mps 749 mmHg 66%
    02:00 +7°C° 0 mm 2 mps 749 mmHg 67%
    03:00 +7°C° 0 mm 2 mps 749 mmHg 69%
    04:00 +7°C° 0 mm 3 mps 749 mmHg 70%
    05:00 +7°C° 0 mm 3 mps 749 mmHg 71%
    06:00 +7°C° 0 mm 3 mps 749 mmHg 73%
    07:00 +8°C° 0 mm 4 mps 749 mmHg 68%
    08:00 +10°C° 0 mm 5 mps 748 mmHg 62%
    09:00 +13°C° 0 mm 6 mps 748 mmHg 57%
    10:00 +15°C° 0 mm 7 mps 748 mmHg 55%
    11:00 +16°C° 0 mm 8 mps 748 mmHg 52%
    12:00 +17°C° 0 mm 8 mps 747 mmHg 50%
    13:00 +18°C° 0 mm 8 mps 747 mmHg 50%
    14:00 +19°C° 0 mm 9 mps 746 mmHg 50%
    15:00 +21°C° 0 mm 9 mps 746 mmHg 50%
    16:00 +21°C° 0 mm 8 mps 746 mmHg 54%
    17:00 +20°C° 0 mm 7 mps 746 mmHg 57%
    18:00 +20°C° 0 mm 6 mps 745 mmHg 60%
    19:00 +19°C° 0.1 mm 6 mps 745 mmHg 64%
    20:00 +17°C° 0.1 mm 5 mps 745 mmHg 68%
    21:00 +16°C° 0.1 mm 5 mps 746 mmHg 72%
    22:00 +15°C° 0.1 mm 5 mps 746 mmHg 74%
    23:00 +15°C° 0.1 mm 5 mps 746 mmHg 76%

    30 April, Monday

    Time Temperature Precipitation Wind Pressure Humidity
    00:00 +15°C° 0.1 mm 5 mps 746 mmHg 77%
    01:00 +14°C° 0 mm 4 mps 746 mmHg 80%
    02:00 +13°C° 0 mm 4 mps 746 mmHg 83%
    03:00 +13°C° 0 mm 4 mps 746 mmHg 86%
    04:00 +12°C° 0 mm 3 mps 746 mmHg 88%
    05:00 +12°C° 0 mm 3 mps 746 mmHg 89%
    06:00 +12°C° 0 mm 3 mps 746 mmHg 90%
    07:00 +13°C° 0.1 mm 2 mps 747 mmHg 86%
    08:00 +14°C° 0.1 mm 2 mps 747 mmHg 81%
    09:00 +15°C° 0.1 mm 2 mps 747 mmHg 76%
    10:00 +16°C° 0 mm 2 mps 747 mmHg 72%
    11:00 +18°C° 0 mm 2 mps 747 mmHg 67%
    12:00 +19°C° 0 mm 2 mps 747 mmHg 62%
    13:00 +20°C° 0 mm 2 mps 747 mmHg 61%
    14:00 +20°C° 0 mm 2 mps 747 mmHg 59%
    15:00 +21°C° 0 mm 2 mps 747 mmHg 58%
    16:00 +21°C° 0.1 mm 2 mps 747 mmHg 59%
    17:00 +22°C° 0.1 mm 1 mps 747 mmHg 59%
    18:00 +21°C° 0.1 mm 1 mps 747 mmHg 60%
    19:00 +20°C° 0 mm 1 mps 747 mmHg 64%
    20:00 +18°C° 0 mm 2 mps 747 mmHg 68%
    21:00 +16°C° 0 mm 2 mps 747 mmHg 71%
    22:00 +16°C° 0 mm 2 mps 748 mmHg 72%
    23:00 +15°C° 0 mm 2 mps 748 mmHg 73%

    1 May, Tuesday

    Time Temperature Precipitation Wind Pressure Humidity
    00:00 +14°C° 0 mm 2 mps 748 mmHg 74%
    01:00 +14°C° 0 mm 2 mps 748 mmHg 76%
    02:00 +13°C° 0 mm 2 mps 748 mmHg 79%
    03:00 +12°C° 0 mm 3 mps 748 mmHg 81%
    04:00 +12°C° 0 mm 3 mps 748 mmHg 84%
    05:00 +12°C° 0 mm 3 mps 748 mmHg 86%
    06:00 +12°C° 0 mm 3 mps 748 mmHg 89%
    07:00 +14°C° 0 mm 3 mps 748 mmHg 82%
    08:00 +17°C° 0 mm 3 mps 748 mmHg 75%
    09:00 +19°C° 0 mm 3 mps 748 mmHg 68%
    10:00 +21°C° 0 mm 4 mps 748 mmHg 61%
    11:00 +22°C° 0 mm 4 mps 748 mmHg 54%
    12:00 +25°C° 0 mm 5 mps 748 mmHg 47%
    13:00 +25°C° 0 mm 5 mps 748 mmHg 45%
    14:00 +26°C° 0 mm 5 mps 747 mmHg 44%
    15:00 +26°C° 0 mm 5 mps 747 mmHg 42%
    16:00 +26°C° 0 mm 5 mps 747 mmHg 45%
    17:00 +25°C° 0 mm 4 mps 747 mmHg 48%
    18:00 +25°C° 0 mm 3 mps 747 mmHg 52%
    19:00 +22°C° 0 mm 3 mps 747 mmHg 56%
    20:00 +20°C° 0 mm 3 mps 747 mmHg 60%
    21:00 +19°C° 0 mm 3 mps 747 mmHg 64%
    22:00 +18°C° 0 mm 3 mps 747 mmHg 65%
    23:00 +18°C° 0 mm 3 mps 747 mmHg 67%
    Show more